{"data":{"norad_id":59578,"epoch":"2026-09-21T13:35:43.238688Z","epoch_age_seconds":76139,"freshness":"FRESH","line1":"1 59578U 24076Q   26264.56647267  .00000065  00000+0  11870-4 0  9997","line2":"2 59578  43.0016 342.4275 0001165 256.7802 103.2920 15.27576743136464","mean_motion":15.27576743,"eccentricity":0.0001165,"inclination_deg":43.0016,"raan_deg":342.4275,"arg_perigee_deg":256.7802,"mean_anomaly_deg":103.292,"bstar":1.187e-5,"rev_number":13646,"period_min":94.266949703096,"perigee_km":482.25951937031,"apogee_km":483.85817800305,"semimajor_km":6861.1958486867,"source":"CELESTRAK","updated_at":"2026-09-22T09:00:49.004001Z"}}